CW6395 Weather Reports


time (UTC)temp
F
wind
direction
speed
knots
gust
knots
rain 1hr
in
rain 24hr
in
rain mn
in
humidity
%
barometer
mb
20260502210016 54 338 5.2 8.7 0.01 0.17 0.16 91 1010.2
20260502205036 54 338 6.1 9.6 0.01 0.17 0.16 90 1010.1
20260502204016 54 338 7.0 10.4 0.01 0.16 0.15 90 1010.0
20260502203016 54 338 4.3 8.7 0.01 0.16 0.15 91 1010.1
20260502202036 53 23 3.5 7.0 0.01 0.16 0.15 90 1010.1
20260502201016 53 23 1.7 6.1 0.01 0.16 0.15 89 1010.1
20260502200016 53 338 5.2 7.8 0.01 0.16 0.15 89 1010.1
20260502195016 53 23 4.3 7.0 0.01 0.16 0.15 90 1009.8
20260502194016 53 23 2.6 7.0 0.00 0.15 0.14 91 1010.0
20260502193016 53 23 2.6 7.0 0.00 0.15 0.14 92 1010.6
20260502192016 53 23 2.6 6.1 0.00 0.15 0.14 91 1010.6
20260502191016 54 23 3.5 9.6 0.00 0.15 0.14 91 1010.5
20260502190016 54 23 4.3 7.0 0.00 0.15 0.14 91 1010.5
20260502185016 54 338 6.1 9.6 0.00 0.15 0.14 90 1010.8
20260502184016 55 338 5.2 12.2 0.01 0.15 0.14 90 1010.6
20260502183016 55 23 6.1 10.4 0.01 0.15 0.14 88 1011.0
20260502182016 55 338 5.2 11.3 0.01 0.15 0.14 89 1011.0
20260502181016 55 23 4.3 9.6 0.01 0.15 0.14 91 1011.1
20260502164018 57 338 7.8 12.2 0.03 0.14 0.13 91 1011.4
20260502163017 57 23 5.2 9.6 0.04 0.14 0.13 92 1011.2
20260502162038 57 45 4.3 9.6 0.04 0.14 0.13 93 1011.5
20260502161037 56 23 7.0 13.9 0.03 0.13 0.12 93 1011.5
20260502152037 56 23 3.5 7.8 0.01 0.10 0.09 93 1012.3
20260502151017 56 338 4.3 8.7 0.01 0.10 0.09 92 1012.2
20260502123017 54 338 6.1 8.7 0.02 0.06 0.05 94 1011.3
20260502122017 54 338 7.0 9.6 0.02 0.06 0.05 94 1011.3
20260502121037 54 338 6.1 8.7 0.02 0.06 0.05 94 1011.4
20260502115017 54 338 5.2 7.0 0.03 0.05 0.04 95 1011.5
20260502114017 54 338 1.7 5.2 0.03 0.05 0.04 95 1011.6
20260502113016 54 338 0.9 3.5 0.03 0.04 0.03 95 1011.5
20260502112016 54 0.0 0.9 0.03 0.04 0.03 95 1011.4
20260502111017 54 0.0 0.9 0.03 0.04 0.03 94 1011.3
20260502110016 54 0.0 0.9 0.02 0.03 0.02 94 1011.3
20260502105016 54 338 1.7 2.6 0.01 0.02 0.01 94 1011.3
20260502104016 54 338 1.7 3.5 0.01 0.02 0.01 94 1011.2
20260502103017 54 0.0 0.9 0.00 0.01 0.00 94 1011.1
20260502102016 53 0.0 0.9 0.00 0.01 0.00 94 1011.0
20260502101016 53 0.0 0.9 0.00 0.01 0.00 94 1010.8
20260502091016 54 338 0.9 1.7 0.00 0.01 0.00 94 1010.8
20260502071016 54 0.0 1.7 0.00 0.01 0.00 94 1010.3
20260502070016 53 0.0 0.9 0.00 0.01 0.00 94 1010.5
20260502065016 53 338 0.9 1.7 0.00 0.01 0.00 94 1010.7
20260502064016 53 0.0 0.0 0.00 0.01 0.00 94 1010.7
20260502063016 53 0.0 0.0 0.00 0.01 0.00 94 1010.7
20260502062018 53 0.0 0.9 0.00 0.01 0.00 94 1010.8
20260502061016 53 0.0 0.9 0.00 0.01 0.00 94 1011.0
20260502060136 53 0.0 0.0 0.00 0.01 0.00 94 1011.3
20260502055016 53 0.0 0.0 0.00 0.01 0.00 94 1011.3
20260502054036 53 338 0.9 1.7 0.00 0.01 0.00 94 1011.5
20260502053016 53 0.0 0.0 0.00 0.01 0.00 93 1011.6
20260502052016 53 338 1.7 3.5 0.00 0.01 0.00 93 1011.8
20260502051056 53 0.0 1.7 0.00 0.01 0.00 93 1011.8
20260502050016 53 338 1.7 4.3 0.00 0.01 0.00 92 1012.1
20260502045016 53 338 1.7 5.2 0.00 0.01 0.00 92 1012.0
20260502044017 54 0.0 0.9 0.00 0.01 0.00 93 1012.1
20260502043017 53 0.0 0.0 0.00 0.01 0.00 92 1012.1
20260502042037 53 0.0 0.9 0.00 0.01 0.00 92 1012.1
20260502041017 53 0.0 0.0 0.00 0.01 0.00 91 1012.4
20260502040016 53 0.0 0.0 0.00 0.01 0.01 91 1012.3
20260502035017 53 0.0 0.0 0.01 0.01 0.01 90 1012.5
20260502034017 53 0.0 0.9 0.01 0.01 0.01 90 1012.7
20260502033017 54 0.0 0.0 0.01 0.01 0.01 89 1012.6
20260502032017 54 0.0 0.9 0.01 0.01 0.01 88 1012.5
20260502031018 54 0.0 0.0 0.01 0.01 0.01 86 1012.9
20260502030017 55 338 1.7 5.2 0.01 0.01 0.01 85 1012.8
20260502025017 55 0.0 0.9 0.00 0.00 0.00 81 1013.1
20260502024017 55 0.0 0.0 0.00 0.00 0.00 80 1013.0
20260502023017 55 0.0 0.0 0.00 0.00 0.00 79 1012.9
20260502022017 56 0.0 0.0 0.00 0.00 0.00 78 1013.0
20260502021017 56 135 0.9 3.5 0.00 0.00 0.00 77 1013.1
20260502020017 56 135 4.3 6.1 0.00 0.00 0.00 77 1013.2
20260502015017 56 135 3.5 6.1 0.00 0.00 0.00 78 1013.2
20260502014037 56 135 3.5 7.0 0.00 0.00 0.00 77 1013.2
20260502013017 56 135 2.6 6.1 0.00 0.00 0.00 76 1013.1
20260502012117 56 135 0.9 3.5 0.00 0.00 0.00 75 1013.1
20260502011017 56 158 2.6 8.7 0.00 0.00 0.00 73 1013.1
20260502010017 56 158 3.5 7.0 0.00 0.00 0.00 75 1013.2
20260502005017 57 135 1.7 4.3 0.00 0.00 0.00 75 1013.1
20260502004037 57 135 3.5 6.1 0.00 0.00 0.00 74 1012.9
20260502003017 57 158 1.7 5.2 0.00 0.00 0.00 77 1013.2
20260502002017 57 225 3.5 5.2 0.00 0.00 0.00 80 1013.4
20260502001017 57 113 1.7 5.2 0.00 0.00 0.00 79 1012.7
20260502000017 57 135 2.6 5.2 0.00 0.00 0.00 78 1012.6
20260501235017 58 113 5.2 7.8 0.00 0.00 0.00 77 1012.2
20260501234017 58 135 2.6 5.2 0.00 0.00 0.00 77 1012.3
20260501233037 58 113 1.7 4.3 0.00 0.00 0.00 76 1012.4
20260501232016 58 113 0.9 3.5 0.00 0.00 0.00 75 1012.4
20260501231017 58 135 2.6 5.2 0.00 0.00 0.00 74 1012.6
20260501230016 59 135 3.5 6.1 0.00 0.00 0.00 73 1012.4
20260501225016 59 113 1.7 6.1 0.00 0.00 0.00 73 1012.5
20260501224016 58 113 1.7 4.3 0.00 0.00 0.00 73 1012.4
20260501223016 58 113 4.3 7.8 0.00 0.00 0.00 73 1012.3
20260501222016 58 113 5.2 8.7 0.00 0.00 0.00 72 1012.6
20260501221016 59 113 5.2 9.6 0.00 0.00 0.00 70 1012.6
20260501220016 59 113 5.2 8.7 0.00 0.00 0.00 68 1012.6
20260501215016 59 113 3.5 7.0 0.00 0.00 0.00 69 1012.7
20260501214016 59 135 3.5 8.7 0.00 0.00 0.00 69 1012.8
20260501213016 60 135 4.3 7.8 0.00 0.00 0.00 68 1013.0
20260501212016 61 135 3.5 6.1 0.00 0.00 0.00 66 1013.0
20260501211016 61 135 2.6 6.1 0.00 0.00 0.00 63 1012.9